Location: Bakov nad Jizerou
(50.4784°N, 14.9394°E)
Time: 11:38:55
(UTC+00:00)

SL-8 R/B - Pass Details

Date: 31 October 2021
Orbit: 656 x 667 km, 48.4° (Epoch: 29 November)

Event Time Altitude Azimuth Distance (km) Brightness Sun altitude
Rises 16:15:54 0° 274° (W) 2,983 8.7 -6.7°
Reaches altitude 10° 16:18:15 10° 271° (W) 2,072 7.8 -7.0°
Maximum altitude 16:22:58 63° 191° (S) 736 4.1 -7.7°
Drops below altitude 10° 16:27:42 10° 111° (ESE) 2,075 5.8 -8.5°
Enters shadow 16:28:28 - 110° (ESE) 2,369 6.0 -8.6°
